FW4334 Weather Reports


Display with metric or nautical units.
time (UTC)temp
F
wind
direction
speed
MPH
gust
MPH
rain 1hr
in
rain 24hr
in
rain mn
in
humidity
%
barometer
mb
20200403231519 58 137 1.0 6.0 0.00 0.00 0.00 58 1014.3
20200403231019 59 167 1.0 7.0 0.00 0.00 0.00 58 1014.3
20200403230508 59 128 2.0 4.0 0.00 0.00 0.00 58 1014.3
20200403230012 59 129 1.0 7.0 0.00 0.00 0.00 58 1014.3
20200403225508 59 170 2.0 8.0 0.00 0.00 0.00 57 1014.2
20200403225011 59 128 3.0 8.0 0.00 0.00 0.00 56 1014.2
20200403224510 60 114 1.0 5.0 0.00 0.00 0.00 57 1014.2
20200403224012 60 140 2.0 5.0 0.00 0.00 0.00 56 1014.0
20200403223512 60 165 1.0 6.0 0.00 0.00 0.00 56 1014.1
20200403223019 60 100 2.0 9.0 0.00 0.00 0.00 56 1014.2
20200403222506 61 121 1.0 10.0 0.00 0.00 0.00 55 1014.1
20200403222006 61 113 2.0 8.0 0.00 0.00 0.00 54 1014.0
20200403221507 61 145 2.0 8.0 0.00 0.00 0.00 54 1013.9
20200403221006 61 127 2.0 8.0 0.00 0.00 0.00 53 1014.0
20200403220506 62 86 3.0 8.0 0.00 0.00 0.00 52 1014.0
20200403220008 62 121 3.0 9.0 0.00 0.00 0.00 53 1013.9
20200403215519 63 161 4.0 12.0 0.00 0.00 0.00 53 1013.9
20200403215010 63 95 4.0 12.0 0.00 0.00 0.00 51 1013.9
20200403214554 64 106 3.0 10.0 0.00 0.00 0.00 52 1013.9
20200403214004 63 118 2.0 10.0 0.00 0.00 0.00 53 1013.9
20200403213504 62 80 3.0 15.0 0.00 0.00 0.00 54 1014.1
20200403213006 63 103 7.0 15.0 0.00 0.00 0.00 53 1014.0
20200403212506 63 105 7.0 12.0 0.00 0.00 0.00 52 1014.1
20200403212014 64 98 3.0 9.0 0.00 0.00 0.00 52 1014.1
20200403211524 64 113 3.0 14.0 0.00 0.00 0.00 52 1014.0
20200403211004 64 73 7.0 12.0 0.00 0.00 0.00 51 1014.0
20200403210503 65 85 6.0 10.0 0.00 0.00 0.00 51 1014.0
20200403210003 65 86 5.0 16.0 0.00 0.00 0.00 50 1014.0
20200403205110 66 218 4.0 9.0 0.00 0.00 0.00 50 1014.2
20200403204716 65 128 2.0 11.0 0.00 0.00 0.00 50 1014.3
20200403204059 66 111 6.0 11.0 0.00 0.00 0.00 48 1014.3
20200403203615 66 161 3.0 10.0 0.00 0.00 0.00 49 1014.3
20200403203122 66 163 2.0 12.0 0.00 0.00 0.00 49 1014.3
20200403202606 66 117 3.0 12.0 0.00 0.00 0.00 49 1014.3
20200403202101 66 102 4.0 10.0 0.00 0.00 0.00 49 1014.4
20200403201818 66 113 3.0 9.0 0.00 0.00 0.00 48 1014.5
20200403201100 67 135 4.0 9.0 0.00 0.00 0.00 49 1014.6
20200403200557 66 130 1.0 7.0 0.00 0.00 0.00 49 1014.6
20200403200104 67 174 3.0 11.0 0.00 0.00 0.00 47 1014.6
20200403195608 67 224 2.0 7.0 0.00 0.00 0.00 49 1014.6
20200403195053 67 181 2.0 6.0 0.00 0.00 0.00 48 1014.7
20200403194555 67 199 2.0 12.0 0.00 0.00 0.00 47 1014.9
20200403194052 67 88 3.0 12.0 0.00 0.00 0.00 48 1014.9
20200403193552 66 173 2.0 8.0 0.00 0.00 0.00 48 1015.2
20200403193126 66 209 3.0 9.0 0.00 0.00 0.00 48 1015.2
20200403192549 65 198 3.0 8.0 0.00 0.00 0.00 49 1015.4
20200403192048 65 67 3.0 8.0 0.00 0.00 0.00 50 1015.3
20200403191608 65 176 2.0 8.0 0.00 0.00 0.00 49 1015.4
20200403191052 65 88 3.0 8.0 0.00 0.00 0.00 48 1015.5
20200403190546 65 163 1.0 9.0 0.00 0.00 0.00 48 1015.5
20200403190235 65 147 4.0 9.0 0.00 0.00 0.00 49 1015.5
20200403185544 65 62 2.0 9.0 0.00 0.00 0.00 49 1015.6
20200403185044 64 251 2.0 12.0 0.00 0.00 0.00 49 1015.7
20200403184944 64 195 1.0 7.0 0.00 0.00 0.00 50 1015.8
20200403184100 64 131 3.0 7.0 0.00 0.00 0.00 49 1015.7
20200403183541 64 163 3.0 7.0 0.00 0.00 0.00 49 1015.8
20200403183111 64 146 3.0 8.0 0.00 0.00 0.00 49 1015.8
20200403182544 64 154 3.0 8.0 0.00 0.00 0.00 48 1016.0
20200403182040 64 180 2.0 5.0 0.00 0.00 0.00 48 1016.2
20200403181601 64 152 2.0 6.0 0.00 0.00 0.00 50 1016.1
20200403181037 63 158 1.0 6.0 0.00 0.00 0.00 50 1016.3
20200403180535 62 148 2.0 6.0 0.00 0.00 0.00 51 1016.2
20200403180120 61 106 1.0 9.0 0.00 0.00 0.00 53 1016.3
20200403175543 60 180 2.0 10.0 0.00 0.00 0.00 52 1016.4
20200403175034 60 177 4.0 10.0 0.00 0.00 0.00 51 1016.5
20200403174713 61 107 3.0 8.0 0.00 0.00 0.00 51 1016.4
20200403174034 60 173 2.0 7.0 0.00 0.00 0.00 52 1016.5
20200403173530 60 161 2.0 7.0 0.00 0.00 0.00 51 1016.5
20200403173056 59 153 1.0 7.0 0.00 0.00 0.00 54 1016.6
20200403172527 58 111 1.0 7.0 0.00 0.00 0.00 54 1016.6
20200403172025 58 109 3.0 7.0 0.00 0.00 0.00 54 1016.7
20200403171549 57 180 1.0 5.0 0.00 0.00 0.00 55 1016.7
20200403171023 57 135 1.0 6.0 0.00 0.00 0.00 55 1016.9
20200403170521 56 97 2.0 5.0 0.00 0.00 0.00 55 1017.0
20200403170020 56 201 2.0 7.0 0.00 0.00 0.00 56 1017.1
20200403165519 56 97 2.0 7.0 0.00 0.00 0.00 55 1017.1
20200403165019 55 145 1.0 8.0 0.00 0.00 0.00 55 1017.2
20200403164520 55 115 2.0 8.0 0.00 0.00 0.00 55 1017.3
20200403164021 55 154 1.0 7.0 0.00 0.00 0.00 56 1017.3
20200403163515 55 183 2.0 5.0 0.00 0.00 0.00 55 1017.3
20200403163059 54 128 2.0 5.0 0.00 0.00 0.00 55 1017.5
20200403162515 54 180 0.0 7.0 0.00 0.00 0.00 57 1017.4
20200403162019 54 148 3.0 7.0 0.00 0.00 0.00 54 1017.4
20200403161525 54 110 2.0 5.0 0.00 0.00 0.00 55 1017.4
20200403161012 54 167 1.0 6.0 0.00 0.00 0.00 56 1017.4
20200403160510 53 130 2.0 6.0 0.00 0.00 0.00 57 1017.4
20200403160013 52 360 2.0 10.0 0.00 0.00 0.00 57 1017.4
20200403155510 52 168 3.0 10.0 0.00 0.00 0.00 58 1017.5
20200403155006 51 144 2.0 6.0 0.00 0.00 0.00 59 1017.5
20200403154540 51 148 1.0 5.0 0.00 0.00 0.00 59 1017.6
20200403154007 51 360 2.0 7.0 0.00 0.00 0.00 60 1017.6
20200403153503 50 360 1.0 9.0 0.00 0.00 0.00 61 1017.6
20200403153004 50 111 3.0 9.0 0.00 0.00 0.00 59 1017.5
20200403152504 50 360 1.0 4.0 0.00 0.00 0.00 62 1017.5
20200403151646 49 87 2.0 4.0 0.00 0.00 0.00 62 1017.5
20200403151059 49 360 0.0 4.0 0.00 0.00 0.00 63 1017.4
20200403150606 49 165 1.0 6.0 0.00 0.00 0.00 63 1017.4
20200403150139 48 144 2.0 6.0 0.00 0.00 0.00 63 1017.5
20200403145555 48 157 2.0 5.0 0.00 0.00 0.00 65 1017.4
20200403145054 48 139 1.0 5.0 0.00 0.00 0.00 65 1017.5
20200403144636 47 181 1.0 5.0 0.00 0.00 0.00 66 1017.6
20200403144059 47 87 2.0 7.0 0.00 0.00 0.00 67 1017.5
20200403143558 47 159 2.0 7.0 0.00 0.00 0.00 67 1017.6
20200403143146 46 121 0.0 6.0 0.00 0.00 0.00 70 1017.7
20200403142555 46 115 2.0 10.0 0.00 0.00 0.00 69 1017.8
20200403142050 46 84 5.0 10.0 0.00 0.00 0.00 68 1017.8
20200403141630 46 109 3.0 9.0 0.00 0.00 0.00 69 1017.7
20200403141047 46 92 2.0 6.0 0.00 0.00 0.00 71 1017.7
20200403140547 46 111 2.0 6.0 0.00 0.00 0.00 71 1017.6
20200403140333 45 360 2.0 6.0 0.00 0.00 0.00 73 1017.7
20200403135543 45 360 1.0 4.0 0.00 0.00 0.00 74 1017.6
20200403135042 44 360 0.0 4.0 0.00 0.00 0.00 76 1017.6
20200403134654 44 360 1.0 4.0 0.00 0.00 0.00 76 1017.6
20200403134051 44 128 1.0 4.0 0.00 0.00 0.00 76 1017.6
20200403133542 43 105 1.0 4.0 0.00 0.00 0.00 77 1017.5
20200403133102 43 96 1.0 4.0 0.00 0.00 0.00 78 1017.5
20200403132548 43 96 1.0 4.0 0.00 0.00 0.00 79 1017.6
20200403132041 43 109 1.0 4.0 0.00 0.00 0.00 79 1017.6
20200403131629 42 109 0.0 4.0 0.00 0.00 0.00 79 1017.7
20200403131038 42 135 1.0 3.0 0.00 0.00 0.00 80 1017.7
20200403130537 42 86 1.0 6.0 0.00 0.00 0.00 81 1017.7
20200403130109 42 98 2.0 6.0 0.00 0.00 0.00 81 1017.7
20200403125537 42 117 1.0 6.0 0.00 0.00 0.00 82 1017.7
20200403125039 41 360 2.0 4.0 0.00 0.00 0.00 82 1017.8
20200403124544 41 360 2.0 5.0 0.00 0.00 0.00 82 1017.7
20200403124045 41 360 2.0 6.0 0.00 0.00 0.00 82 1017.7
20200403123536 41 360 1.0 6.0 0.00 0.00 0.00 83 1017.8
20200403123042 41 360 3.0 6.0 0.00 0.00 0.00 83 1017.7
20200403122544 41 360 0.0 5.0 0.00 0.00 0.00 83 1017.9
20200403122036 41 109 2.0 8.0 0.00 0.00 0.00 83 1017.8
20200403121551 41 360 2.0 6.0 0.00 0.00 0.00 83 1017.9
20200403121039 41 360 2.0 6.0 0.00 0.00 0.00 83 1018.1
20200403120538 41 109 2.0 6.0 0.00 0.00 0.00 83 1018.2
20200403120149 41 360 2.0 4.0 0.00 0.00 0.00 83 1018.3
20200403115610 41 360 2.0 4.0 0.00 0.00 0.00 82 1018.3
20200403115035 41 360 1.0 4.0 0.00 0.00 0.00 82 1018.2
20200403114547 41 360 2.0 4.0 0.00 0.00 0.00 82 1018.0
20200403114032 41 112 0.0 4.0 0.00 0.00 0.00 83 1017.9
20200403113542 41 103 1.0 4.0 0.00 0.00 0.00 83 1017.8
20200403113039 41 360 1.0 5.0 0.00 0.00 0.00 83 1017.7
20200403112532 41 121 0.0 4.0 0.00 0.00 0.00 83 1017.8
20200403112038 41 109 1.0 4.0 0.00 0.00 0.00 82 1017.8
20200403111537 41 360 1.0 2.0 0.00 0.00 0.00 83 1017.8
20200403111030 41 148 0.0 3.0 0.00 0.00 0.00 83 1017.7
20200403110531 41 360 0.0 3.0 0.00 0.00 0.00 82 1017.5
20200403110130 41 147 1.0 4.0 0.00 0.00 0.00 82 1017.6
20200403105533 41 144 0.0 4.0 0.00 0.00 0.00 82 1017.4
20200403105028 41 97 0.0 5.0 0.00 0.00 0.00 82 1017.3
20200403104543 41 98 2.0 5.0 0.00 0.00 0.00 82 1017.2
20200403104026 41 360 1.0 4.0 0.00 0.00 0.00 82 1017.2
20200403103531 41 101 1.0 4.0 0.00 0.00 0.00 82 1017.4
20200403103046 41 360 1.0 6.0 0.00 0.00 0.00 81 1017.5
20200403102529 41 121 2.0 6.0 0.00 0.00 0.00 81 1017.5
20200403102023 41 120 2.0 6.0 0.00 0.00 0.00 82 1017.5
20200403101537 41 101 2.0 6.0 0.00 0.00 0.00 82 1017.5
20200403101022 41 135 3.0 6.0 0.00 0.00 0.00 81 1017.5
20200403100522 41 107 2.0 5.0 0.00 0.00 0.00 81 1017.5
20200403100129 41 103 1.0 3.0 0.00 0.00 0.00 81 1017.5
20200403095521 41 360 1.0 7.0 0.00 0.00 0.00 81 1017.5
20200403095025 41 111 2.0 7.0 0.00 0.00 0.00 81 1017.6
20200403094623 41 122 1.0 5.0 0.00 0.00 0.00 81 1017.5
20200403094026 41 360 1.0 3.0 0.00 0.00 0.00 81 1017.5
20200403093519 41 134 1.0 3.0 0.00 0.00 0.00 80 1017.4
20200403093037 41 121 1.0 3.0 0.00 0.00 0.00 81 1017.4
20200403092523 41 360 1.0 3.0 0.00 0.00 0.00 81 1017.5
20200403092024 41 360 1.0 3.0 0.00 0.00 0.00 82 1017.5
20200403091027 41 360 1.0 2.0 0.00 0.00 0.00 81 1017.6
20200403090518 41 360 1.0 2.0 0.00 0.00 0.00 82 1017.6
20200403090133 41 360 0.0 2.0 0.00 0.00 0.00 83 1017.6
20200403085016 41 161 0.0 2.0 0.00 0.00 0.00 82 1017.7
20200403084519 41 156 0.0 3.0 0.00 0.00 0.00 82 1017.7
20200403084016 41 161 0.0 3.0 0.00 0.00 0.00 80 1017.8
20200403083518 41 360 0.0 2.0 0.00 0.00 0.00 80 1017.6
20200403083020 41 360 0.0 3.0 0.00 0.00 0.00 80 1017.6
20200403082524 41 109 1.0 4.0 0.00 0.00 0.00 80 1017.6
20200403082015 41 98 2.0 5.0 0.00 0.00 0.00 80 1017.7
20200403081515 41 360 2.0 5.0 0.00 0.00 0.00 80 1017.6
20200403081023 41 360 2.0 4.0 0.00 0.00 0.00 80 1017.6
20200403080521 41 360 1.0 4.0 0.00 0.00 0.00 80 1017.6
20200403080056 41 124 2.0 4.0 0.00 0.00 0.00 81 1017.7
20200403075512 41 132 0.0 3.0 0.00 0.00 0.00 81 1017.7
20200403075012 41 136 1.0 3.0 0.00 0.00 0.00 81 1017.6
20200403074519 41 141 1.0 3.0 0.00 0.00 0.00 82 1017.6
20200403074011 41 218 0.0 2.0 0.00 0.00 0.00 82 1017.7
20200403073512 42 360 0.0 2.0 0.00 0.00 0.00 83 1017.8
20200403073053 42 215 0.0 2.0 0.00 0.00 0.00 81 1017.7
20200403072528 42 213 0.0 1.0 0.00 0.00 0.00 82 1017.8
20200403072009 42 216 0.0 1.0 0.00 0.00 0.00 82 1017.8
20200403071512 42 216 0.0 1.0 0.00 0.00 0.00 81 1017.7
20200403071011 42 214 0.0 1.0 0.00 0.00 0.00 81 1017.7
20200403070507 42 201 0.0 1.0 0.00 0.00 0.00 81 1017.7
20200403070009 42 205 0.0 1.0 0.00 0.00 0.00 81 1017.8
20200403065505 42 217 0.0 1.0 0.00 0.00 0.00 79 1017.8
20200403065005 42 360 0.0 1.0 0.00 0.00 0.00 78 1017.9
20200403064506 42 204 0.0 2.0 0.00 0.00 0.00 76 1018.1
20200403064007 42 360 0.0 2.0 0.00 0.00 0.00 75 1018.2
20200403063506 42 360 0.0 1.0 0.00 0.00 0.00 75 1018.2
20200403063008 42 215 0.0 1.0 0.00 0.00 0.00 74 1018.2
20200403062502 42 360 0.0 1.0 0.00 0.00 0.00 74 1018.3
20200403062001 42 360 0.0 1.0 0.00 0.00 0.00 73 1018.4
20200403061103 42 360 0.0 0.0 0.00 0.00 0.00 72 1018.4
20200403060600 42 213 0.0 1.0 0.00 0.00 0.00 71 1018.4
20200403060158 42 360 0.0 2.0 0.00 0.00 0.00 71 1018.5
20200403055558 42 360 0.0 1.0 0.00 0.00 0.00 71 1018.5
20200403055058 43 360 0.0 1.0 0.00 0.00 0.00 71 1018.5
20200403054633 43 210 0.0 2.0 0.00 0.00 0.00 71 1018.6
20200403054101 43 360 0.0 2.0 0.00 0.00 0.00 69 1018.6
20200403053602 43 360 0.0 0.0 0.00 0.00 0.00 69 1018.7
20200403053147 43 360 0.0 2.0 0.00 0.00 0.00 69 1018.6
20200403052609 43 360 1.0 2.0 0.00 0.00 0.00 69 1018.7
20200403052057 43 360 0.0 3.0 0.00 0.00 0.00 69 1018.7
20200403051645 43 360 1.0 4.0 0.00 0.00 0.00 69 1018.7
20200403050553 43 139 0.0 2.0 0.00 0.00 0.00 71 1018.4
20200403050158 43 140 0.0 2.0 0.00 0.00 0.00 72 1018.5
20200403045551 43 141 0.0 2.0 0.00 0.00 0.00 71 1018.5
20200403045050 43 138 0.0 2.0 0.00 0.00 0.00 71 1018.4
20200403044715 43 360 1.0 2.0 0.00 0.00 0.00 70 1018.4
20200403044054 43 139 0.0 2.0 0.00 0.00 0.00 69 1018.5
20200403043552 43 140 1.0 2.0 0.00 0.00 0.00 69 1018.4
20200403043148 43 360 0.0 2.0 0.00 0.00 0.00 70 1018.4
20200403042549 43 140 0.0 2.0 0.00 0.00 0.00 69 1018.4
20200403042050 44 360 0.0 2.0 0.00 0.00 0.00 68 1018.4
20200403041649 44 139 0.0 2.0 0.00 0.00 0.00 68 1018.4
20200403041049 44 139 0.0 2.0 0.00 0.00 0.00 68 1018.3
20200403040556 44 138 0.0 2.0 0.00 0.00 0.00 68 1018.4
20200403040210 44 137 1.0 3.0 0.00 0.00 0.00 67 1018.3
20200403035554 44 132 0.0 3.0 0.00 0.00 0.00 68 1018.4
20200403035049 44 132 0.0 3.0 0.00 0.00 0.00 69 1018.3
20200403034618 44 144 0.0 2.0 0.00 0.00 0.00 69 1018.3
20200403034051 44 143 0.0 2.0 0.00 0.00 0.00 68 1018.4
20200403033608 44 142 0.0 2.0 0.00 0.00 0.00 68 1018.4
20200403033126 44 141 0.0 2.0 0.00 0.00 0.00 68 1018.4
20200403032553 44 142 0.0 2.0 0.00 0.00 0.00 67 1018.5
20200403032048 44 154 0.0 1.0 0.00 0.00 0.00 66 1018.4
20200403031711 44 151 0.0 2.0 0.00 0.00 0.00 68 1018.4
20200403031050 44 152 0.0 3.0 0.00 0.00 0.00 66 1018.4
20200403030553 44 147 0.0 3.0 0.00 0.00 0.00 65 1018.3
20200403030107 44 140 0.0 2.0 0.00 0.00 0.00 67 1018.3
20200403025546 44 140 0.0 2.0 0.00 0.00 0.00 66 1018.3
20200403025052 45 124 0.0 2.0 0.00 0.00 0.00 66 1018.2
20200403024657 45 133 0.0 3.0 0.00 0.00 0.00 66 1018.2
20200403024054 45 134 1.0 3.0 0.00 0.00 0.00 65 1018.2
20200403023546 45 334 0.0 3.0 0.00 0.00 0.00 65 1018.2
20200403023253 45 244 0.0 3.0 0.00 0.00 0.00 65 1018.4
20200403022549 45 196 0.0 3.0 0.00 0.00 0.00 65 1018.4
20200403022046 45 173 0.0 3.0 0.00 0.00 0.00 65 1018.5
20200403021605 45 84 0.0 1.0 0.00 0.00 0.00 65 1018.5
20200403021046 45 84 0.0 2.0 0.00 0.00 0.00 64 1018.4
20200403020546 45 82 0.0 3.0 0.00 0.00 0.00 64 1018.4
20200403020111 45 108 0.0 2.0 0.00 0.00 0.00 64 1018.5
20200403015550 46 108 0.0 1.0 0.00 0.00 0.00 64 1018.5
20200403015100 46 103 0.0 2.0 0.00 0.00 0.00 63 1018.5
20200403014654 46 103 0.0 2.0 0.00 0.00 0.00 62 1018.5
20200403014051 46 103 1.0 3.0 0.00 0.00 0.00 62 1018.5
20200403013549 46 100 0.0 4.0 0.00 0.00 0.00 61 1018.5
20200403013131 47 102 1.0 4.0 0.00 0.00 0.00 61 1018.4
20200403012601 47 114 0.0 4.0 0.00 0.00 0.00 62 1018.5
20200403012047 47 114 0.0 4.0 0.00 0.00 0.00 61 1018.5
20200403011622 48 130 0.0 2.0 0.00 0.00 0.00 60 1018.5
20200403011104 48 130 0.0 2.0 0.00 0.00 0.00 61 1018.5
20200403010544 48 130 0.0 3.0 0.00 0.00 0.00 59 1018.4
20200403010107 48 130 0.0 3.0 0.00 0.00 0.00 59 1018.3
20200403005609 49 130 1.0 4.0 0.00 0.00 0.00 59 1018.2
20200403005043 49 107 1.0 4.0 0.00 0.00 0.00 58 1018.1
20200403004554 49 98 1.0 4.0 0.00 0.00 0.00 57 1018.3
20200403004055 50 114 1.0 4.0 0.00 0.00 0.00 58 1018.3
20200403003550 50 107 2.0 8.0 0.00 0.00 0.00 56 1018.3
20200403003136 50 98 3.0 8.0 0.00 0.00 0.00 55 1018.2
20200403002543 51 104 1.0 5.0 0.00 0.00 0.00 55 1018.2
20200403001625 51 109 1.0 7.0 0.00 0.00 0.00 53 1018.2
20200403001056 51 106 2.0 7.0 0.00 0.00 0.00 52 1018.3
20200403000548 52 166 2.0 6.0 0.00 0.00 0.00 52 1018.3
20200403000212 52 115 2.0 6.0 0.00 0.00 0.00 52 1018.2
20200402235544 52 116 2.0 4.0 0.00 0.00 0.00 52 1018.4
20200402235051 52 125 1.0 4.0 0.00 0.00 0.00 51 1018.4
20200402234552 52 142 2.0 6.0 0.00 0.00 0.00 50 1018.3
20200402234043 53 136 2.0 6.0 0.00 0.00 0.00 51 1018.3
20200402233542 53 101 2.0 6.0 0.00 0.00 0.00 51 1018.4
20200402233039 53 124 1.0 6.0 0.00 0.00 0.00 51 1018.6
20200402232548 53 88 2.0 7.0 0.00 0.00 0.00 50 1018.6
20200402232039 53 107 2.0 7.0 0.00 0.00 0.00 50 1018.7